Location: Croisilles
(50.1998°N, 2.8793°E)
Time: 13:04:33
(UTC+00:00)

Cosmos 2195 Rocket - Pass Details

Date: 21 January 2021
Orbit: 948 x 994 km, 82.9° (Epoch: 26 February)

Event Time Altitude Azimuth Distance (km) Brightness Sun altitude
Rises 18:36:40 0° 179° (S) 3,690 7.6 -20.8°
Reaches altitude 10° 18:39:11 10° 178° (S) 2,749 6.9 -21.2°
Maximum altitude 18:45:28 72° 96° (E) 1,047 4.4 -22.2°
Drops below altitude 10° 18:51:48 10° 13° (NNE) 2,769 6.7 -23.2°
Sets 18:54:20 0° 12° (NNE) 3,720 7.4 -23.6°
